Location: Unspecified
(0.0000°N, 0.0000°E)
Time: 16:28:19
(UTC+00:00)

Vanguard 1 Rocket - Pass Details

Date: 25 January 2020
Orbit: 650 x 4226 km, 34.3° (Epoch: 24 February)

Event Time Altitude Azimuth Distance (km) Brightness Sun altitude
Rises 22:32:30 0° 249° (WSW) 7,827 12.6 -59.1°
Reaches altitude 10° 22:45:08 10° 220° (SW) 5,746 11.7 -61.4°
Maximum altitude 22:49:21 11° 205° (SSW) 5,194 11.5 -62.2°
Drops below altitude 10° 22:53:01 10° 190° (S) 4,870 11.3 -62.9°
Sets 23:00:27 0° 156° (SSE) 4,923 11.3 -64.1°
